Middlesboro, KY

3:16 PM EDT on September 29, 2016 (GMT -0400)
Middlesboro

Weather History for K1A6 - April, 2013

Change the Weather History Date:

Thursday, April 4, 2013

  Actual Average (KLOZ) Record (KLOZ)
Temperature  
Mean Temperature 43 °F 53 °F  
Max Temperature 49 °F 65 °F 82 °F (1986)
Min Temperature 37 °F 41 °F 26 °F (1962)
Degree Days  
Heating Degree Days 22 12  
Month to date heating degree days 51  
Since 1 July heating degree days 3876  
Cooling Degree Days 0 0  
Month to date cooling degree days 0  
Year to date cooling degree days 3  
Moisture  
Dew Point 33 °F    
Average Humidity 75    
Maximum Humidity 98    
Minimum Humidity 30    
Precipitation  
Precipitation 0.75 in 0.12 in 2.75 in (1977)
Month to date precipitation 0.51  
Sea Level Pressure  
Sea Level Pressure 30.10 in    
Wind  
Wind Speed 1 mph (South)    
Max Wind Speed 7 mph    
Max Gust Speed -    
Visibility 8 miles    
Events Rain    
T = Trace of Precipitation, MM = Missing Value Source: NWS Daily Summary

Daily Weather History Graph

Daily Weather History Graph

Search for Another Location

Airport or City:

Trip Planner

Search our weather history database for the weather conditions in past years. The results will help you decide how hot, cold, wet, or windy it might be!

Date:

Astronomy

Apr. 04, 2013 Rise Set
Actual Time 6:16 AM CDT 6:59 PM CDT
Civil Twilight 5:50 AM CDT 7:26 PM CDT
Nautical Twilight 5:19 AM CDT 7:57 PM CDT
Astronomical Twilight 4:47 AM CDT 8:28 PM CDT
Moon 2:33 AM CDT (4/4) 1:25 PM CDT (4/4)
Length of Visible Light 13h 36m
Length of Day
12h 43m
Waning Crescent, 33% of the Moon is Illuminated
Apr 4
Waning Crescent
Apr 10
New
Apr 18
First Quarter
Apr 25
Full
May 2
Last Quarter

Hourly Weather History & Observations

Time (CDT) Temp. Windchill Dew Point Humidity Pressure Visibility Wind Dir Wind Speed Gust Speed Precip Events Conditions
12:15 AM 38.3 °F - 28.2 °F 67% 30.21 in 10.0 mi Calm Calm - N/A   Clear
12:35 AM 37.2 °F - 27.5 °F 68% 30.21 in 10.0 mi Calm Calm - N/A   Clear
12:55 AM 38.3 °F - 28.6 °F 68% 30.21 in 10.0 mi Calm Calm - N/A   Clear
1:15 AM 38.3 °F - 29.1 °F 70% 30.21 in 10.0 mi Calm Calm - N/A   Clear
1:35 AM 37.9 °F - 28.9 °F 70% 30.20 in 10.0 mi Calm Calm - N/A   Clear
1:55 AM 37.6 °F - 29.7 °F 73% 30.19 in 10.0 mi Calm Calm - N/A   Clear
2:15 AM 37.9 °F - 28.8 °F 70% 30.18 in 10.0 mi Calm Calm - N/A   Clear
2:35 AM 38.3 °F 35.9 °F 29.8 °F 72% 30.17 in 10.0 mi West 3.5 mph - N/A   Clear
2:55 AM 38.5 °F - 31.1 °F 75% 30.15 in 10.0 mi Calm Calm - N/A   Clear
3:15 AM 38.8 °F - 30.4 °F 72% 30.15 in 10.0 mi Calm Calm - N/A   Clear
3:35 AM 38.8 °F - 30.0 °F 71% 30.14 in 10.0 mi Calm Calm - N/A   Clear
3:55 AM 39.2 °F - 30.0 °F 70% 30.14 in 10.0 mi Calm Calm - N/A   Clear
4:15 AM 39.2 °F - 31.1 °F 73% 30.14 in 10.0 mi Calm Calm - N/A   Clear
4:35 AM 39.6 °F - 31.1 °F 72% 30.14 in 10.0 mi Calm Calm - N/A   Clear
4:55 AM 40.1 °F - 31.1 °F 70% 30.14 in 10.0 mi Calm Calm - N/A   Clear
5:15 AM 40.3 °F - 31.6 °F 71% 30.14 in 10.0 mi Calm Calm - N/A   Clear
5:35 AM 43.2 °F - 25.7 °F 50% 30.14 in 10.0 mi Calm Calm - N/A   Clear
5:55 AM 44.8 °F - 21.9 °F 40% 30.14 in 10.0 mi Calm Calm - N/A   Clear
6:15 AM 43.9 °F - 26.4 °F 50% 30.14 in 10.0 mi Calm Calm - N/A   Mostly Cloudy
6:35 AM 45.3 °F - 23.7 °F 43% 30.13 in 10.0 mi Calm Calm - N/A   Overcast
6:55 AM 45.3 °F - 24.1 °F 43% 30.14 in 10.0 mi Calm Calm - N/A   Mostly Cloudy
7:15 AM 45.0 °F 43.5 °F 26.8 °F 49% 30.13 in 10.0 mi West 3.5 mph - N/A   Overcast
7:35 AM 48.0 °F - 23.4 °F 38% 30.13 in 10.0 mi Calm Calm - N/A   Scattered Clouds
7:55 AM 49.1 °F - 19.9 °F 32% 30.12 in 10.0 mi South 5.8 mph - N/A   Scattered Clouds
8:15 AM 49.5 °F - 19.2 °F 30% 30.12 in 10.0 mi SSE 6.9 mph - N/A   Overcast
8:35 AM 49.1 °F - 18.5 °F 30% 30.12 in 10.0 mi Calm Calm - N/A   Overcast
8:55 AM 48.7 °F - 19.0 °F 31% 30.12 in 10.0 mi Calm Calm - N/A   Overcast
9:15 AM 48.7 °F - 18.9 °F 31% 30.12 in 10.0 mi SSE 4.6 mph - N/A   Overcast
9:35 AM 48.4 °F - 20.1 °F 33% 30.12 in 10.0 mi Calm Calm - N/A Rain Light Rain
9:55 AM 46.9 °F - 24.3 °F 41% 30.13 in 7.0 mi South 5.8 mph - 0.01 in Rain Rain
10:15 AM 43.2 °F - 33.3 °F 68% 30.14 in 4.0 mi Calm Calm - 0.03 in Rain Rain
10:35 AM 41.7 °F 39.8 °F 35.1 °F 77% 30.16 in 4.0 mi SSW 3.5 mph - 0.08 in Rain Rain
10:55 AM 40.8 °F 38.8 °F 36.0 °F 83% 30.16 in 2.5 mi WSW 3.5 mph - 0.17 in Rain Rain
11:35 AM 40.1 °F - 35.4 °F 83% 30.15 in 3.0 mi Calm Calm - 0.06 in Rain Rain
11:55 AM 40.1 °F 38.0 °F 36.7 °F 88% 30.15 in 3.0 mi West 3.5 mph - 0.12 in Rain Rain
12:15 PM 40.1 °F - 37.4 °F 90% 30.14 in 5.0 mi Calm Calm - 0.02 in Rain Rain
12:35 PM 40.1 °F 36.9 °F 36.5 °F 87% 30.14 in 7.0 mi SSW 4.6 mph - 0.04 in Rain Light Rain
12:55 PM 40.1 °F - 36.7 °F 88% 30.13 in 7.0 mi Calm Calm - 0.06 in Rain Light Rain
1:15 PM 40.1 °F - 36.0 °F 85% 30.12 in 5.0 mi Calm Calm - 0.03 in Rain Rain
1:35 PM 39.6 °F 37.4 °F 36.1 °F 88% 30.12 in 4.0 mi SSW 3.5 mph - 0.08 in Rain Rain
1:55 PM 39.4 °F 37.2 °F 36.3 °F 89% 30.12 in 2.5 mi South 3.5 mph - 0.14 in Rain Rain
2:15 PM 39.2 °F 35.9 °F 36.1 °F 89% 30.12 in 4.0 mi NE 4.6 mph - 0.04 in Rain Rain
2:35 PM 39.2 °F - 36.5 °F 90% 30.11 in 3.0 mi Calm Calm - 0.08 in Rain Rain
2:55 PM 39.4 °F 37.2 °F 36.3 °F 89% 30.10 in 7.0 mi SSE 3.5 mph - 0.10 in Rain Light Rain
3:15 PM 39.7 °F - 36.9 °F 89% 30.09 in 7.0 mi Calm Calm - 0.01 in Rain Rain
3:35 PM 39.6 °F 37.4 °F 36.5 °F 89% 30.07 in 10.0 mi SE 3.5 mph - 0.03 in Rain Light Rain
3:55 PM 40.1 °F 38.0 °F 37.2 °F 89% 30.07 in 10.0 mi South 3.5 mph - 0.03 in Rain Light Rain
4:15 PM 40.6 °F - 37.4 °F 88% 30.06 in 10.0 mi Calm Calm - N/A Rain Rain
4:55 PM 41.0 °F 39.0 °F 37.0 °F 86% 30.05 in 10.0 mi SSE 3.5 mph - 0.01 in Rain Light Rain
5:15 PM 41.0 °F 39.0 °F 37.8 °F 88% 30.05 in 10.0 mi ESE 3.5 mph - N/A   Drizzle
5:35 PM 41.0 °F 39.0 °F 37.6 °F 88% 30.04 in 10.0 mi SE 3.5 mph - N/A   Light Drizzle
5:55 PM 40.8 °F - 37.4 °F 88% 30.03 in 10.0 mi Calm Calm - N/A   Overcast
6:15 PM 41.0 °F - 37.2 °F 86% 30.03 in 10.0 mi Calm Calm - N/A   Overcast
6:35 PM 41.0 °F - 37.2 °F 86% 30.03 in 10.0 mi Calm Calm - N/A   Overcast
6:55 PM 41.0 °F - 37.2 °F 86% 30.02 in 10.0 mi Calm Calm - N/A   Overcast
7:15 PM 40.8 °F - 37.4 °F 88% 30.02 in 10.0 mi Calm Calm - N/A   Overcast
7:35 PM 40.5 °F - 38.3 °F 92% 30.02 in 7.0 mi Calm Calm - N/A   Overcast
7:55 PM 40.3 °F - 38.5 °F 93% 30.01 in 10.0 mi Calm Calm - N/A   Overcast
8:15 PM 40.3 °F - 39.2 °F 96% 30.01 in 10.0 mi Calm Calm - N/A   Overcast
8:35 PM 40.1 °F - 38.8 °F 95% 30.02 in 7.0 mi Calm Calm - N/A Rain Light Rain
8:55 PM 40.3 °F - 39.4 °F 97% 30.02 in 10.0 mi Calm Calm - N/A Rain Light Rain
9:15 PM 40.1 °F - 39.2 °F 97% 30.02 in 7.0 mi Calm Calm - 0.01 in Rain Light Rain
9:35 PM 40.1 °F - 39.2 °F 97% 30.01 in 2.5 mi Calm Calm - 0.06 in Rain Rain
9:55 PM 40.1 °F - 39.2 °F 97% 30.01 in 10.0 mi Calm Calm - 0.08 in Rain Light Rain
10:15 PM 40.1 °F - 39.2 °F 97% 30.00 in 5.0 mi Calm Calm - 0.02 in Rain Rain
10:35 PM 39.7 °F - 39.2 °F 98% 30.00 in 7.0 mi Calm Calm - 0.03 in Rain Rain
10:55 PM 40.1 °F - 39.6 °F 98% 30.00 in 10.0 mi Calm Calm - 0.03 in Rain Light Rain
11:15 PM 40.1 °F - 39.4 °F 97% 29.99 in 7.0 mi Calm Calm - N/A   Light Drizzle
11:35 PM 40.1 °F - 39.6 °F 98% 30.00 in 7.0 mi Calm Calm - N/A Rain Light Rain
11:55 PM 40.1 °F - 39.4 °F 97% 29.99 in 7.0 mi Calm Calm - N/A   Overcast